Regional Weather Roundup
Issued by NWS

Home | Current Version | Previous Version | Graphics & Text | Print | Product List | Glossary On
Versions: 1 2 3 4 5 6 7 8 9 10 11 12 13 14 15 16 17 18 19 20 21 22 23 24 25 26 27 28 29 30 31 32 33 34 35 36 37 38 39 40 41 42 43 44 45 46 47 48 49 50
000
ASUS43 KMKX 261711
RWRWI

WISCONSIN REGIONAL WEATHER ROUNDUP
NATIONAL WEATHER SERVICE MILWAUKEE/SULLIVAN WI
1200 PM CDT TUE SEP 26 2017

NOTE: "FAIR" INDICATES FEW OR NO CLOUDS BELOW 12,000 FEET WITH NO
SIGNIFICANT WEATHER AND/OR OBSTRUCTIONS TO VISIBILITY.

WIZ001-002-006>008-014>016-023>028-261800-
NORTHWEST WISCONSIN

CITY           SKY/WX    TMP DP  RH WIND       PRES   REMARKS
SUPERIOR ARPT  LGT RAIN  55  55  97 NE10G17   29.92S
ASHLAND        CLOUDY    57  56  96 N12       29.91F FOG
HAYWARD        LGT RAIN  62  59  90 SW6       29.91S
SIREN          CLOUDY    59  56  89 W10G16    29.93R
CUMBERLAND     CLOUDY    59  55  88 W12       29.94R
RICE LAKE      CLOUDY    61  58  91 SW8       29.94S
CHETEK         CLOUDY    61  59  93 SW6       29.93S
LADYSMITH      RAIN      64  63  97 SW5       29.93F
EAU CLAIRE     CLOUDY    64  61  90 W7        29.92S
MENOMONIE      CLOUDY    60  60 100 SW9       29.95R
NEW RICHMOND   CLOUDY    60  56  87 W12       29.97R
OSCEOLA        CLOUDY    61  61 100 W12       29.99R
$$

WIZ003>005-009-010-017-018-261800-
NORTH CENTRAL WISCONSIN

CITY           SKY/WX    TMP DP  RH WIND       PRES   REMARKS
MANITOWISH WTR NOT AVBL
ARBOR VITAE    CLOUDY    67  64  91 SW5       29.92S
WOODRUFF       CLOUDY    67  64  91 SW5       29.92S
RHINELANDER    CLOUDY    68  65  90 SW9       29.93F
EAGLE RIVER    CLOUDY    67  65  91 SW9       29.92S
LAND O LAKES   CLOUDY    66  66 100 SW5       29.93S
PHILLIPS       CLOUDY    64  64 100 SW6       29.91F
TOMAHAWK       CLOUDY    66  63  90 S3        29.93F
MEDFORD        CLOUDY    67  63  87 SW8       29.93F
MERRILL        CLOUDY    69  65  86 SW9       29.94S
$$

WIZ029-030-035-036-043>047-261800-
CENTRAL WISCONSIN

CITY           SKY/WX    TMP DP  RH WIND       PRES   REMARKS
WAUSAU         LGT RAIN  69  65  86 SW8       29.92S
MOSINEE        CLOUDY    70  66  88 SW8       29.95S
MARSHFIELD     CLOUDY    70  64  81 W8        29.93F
STEVENS POINT  CLOUDY    68  67  96 SW6       29.95S
WAUPACA        CLOUDY    74  68  80 S5        29.94S
WAUTOMA        CLOUDY    72  67  84 SW5       29.94S
WISC RAPIDS    CLOUDY    71  67  87 W7        29.95S
CAMP DOUGLAS   CLOUDY    70  68  94 SW6       29.94S
$$

WIZ011>013-019>022-031-037>040-048>050-261800-
NORTHEAST WISCONSIN

CITY           SKY/WX    TMP DP  RH WIND       PRES   REMARKS
ANTIGO         CLOUDY    67  65  95 SW10      29.95S
SHAWANO        CLOUDY    75  66  74 CALM      29.92S
OCONTO         CLOUDY    74  65  73 W3        29.91F
STURGEON BAY   CLOUDY    73  68  84 NW5       29.93R
GREEN BAY      PTSUNNY   77  68  73 SW5       29.92F
MANITOWOC      CLOUDY    79  64  60 SW6       29.92S HX  81
APPLETON       PTSUNNY   77  61  57 W5        29.92F
CLINTONVILLE   CLOUDY    73  64  73 S6        29.92F
OSHKOSH        CLOUDY    76  65  68 SW7       29.93S
$$

WIZ032>034-041-042-053>061-261800-
SOUTHWEST WISCONSIN

CITY           SKY/WX    TMP DP  RH WIND       PRES   REMARKS
LA CROSSE      LGT RAIN  72  67  84 SW9       29.94S
SPARTA         CLOUDY    68  64  87 SW5       29.95S
VIROQUA        CLOUDY    68  67  97 SW8       29.97S
BOSCOBEL       CLOUDY    72  68  87 SW6       29.96S
PRAIRIE DU CHI CLOUDY    69  66  89 W3        29.96F
PLATTEVILLE    CLOUDY    77  68  72 W13       29.97S
$$

WIZ056-057-062-063-064-067-068-261800-
SOUTH CENTRAL WISCONSIN

CITY           SKY/WX    TMP DP  RH WIND       PRES   REMARKS
REEDSBURG      CLOUDY    70  69  98 SW5       29.95R
BARABOO/DELLS  CLOUDY    71  64  79 SW6       29.94F
LONE ROCK      LGT RAIN  71  69  93 CALM      29.95R
MINERAL POINT  CLOUDY    73  70  88 SW3       29.96F
MADISON        CLOUDY    77  65  66 SW6       29.93F
MIDDLETON      CLOUDY    78  67  68 W6        29.95F HX  80
WATERTOWN      CLOUDY    81  65  57 SW8       29.93F HX  83
MONROE         MOSUNNY   81  63  54 SW13      29.95S HX  82
JANESVILLE     PTSUNNY   88  61  40 W12       29.93F HX  88
$$

WIZ051-052-058>065-066-070>072-261800-
SOUTHEAST WISCONSIN

CITY           SKY/WX    TMP DP  RH WIND       PRES   REMARKS
MILWAUKEE      PTSUNNY   86  66  51 S12       29.93F HX  88
WAUKESHA       MOSUNNY   82  61  47 S8        29.95F HX  83
MILWAUKEE/TIMM SUNNY     84  57  39 SW7       29.94S HX  83
RACINE         PTSUNNY   82  66  58 SE6       29.95F HX  84
BURLINGTON     SUNNY     87  65  47 S9G16     29.94S HX  88
KENOSHA        CLOUDY    89  63  41 SW13G20   29.94F HX  90
FOND DU LAC    CLOUDY    77  63  61 SW7       29.93S
SHEBOYGAN      CLOUDY    82  65  56 SW8       29.92S HX  84
WEST BEND        N/A     82  61  47 W8G18     29.93S HX  83
JUNEAU         CLOUDY    74  64  69 SW8       29.95S
$$

LSZ147-162-261800-
LAKE SUPERIOR

STATION/POSITION TIME  TEMP    WIND        PRES    WAVE
                       AIR SEA DIR/SP/G            HT/PER
                 (UTC) (F)     (DEG/KT/KT) (MB)    (FT/S)
W MID LAKE BUOY  1650   55 56   30/ 16/ 19 1012.4S   4/ 6
DEVILS ISLAND    1700   55      40/ 19/ 21 1012.9F
SAXON HARBOR     1640   60      CALM  /  1 1012.2S
$$

LMZ867-665-643>646-261800-
LAKE MICHIGAN

STATION/POSITION TIME  TEMP    WIND        PRES    WAVE
                       AIR SEA DIR/SP/G            HT/PER
                 (UTC) (F)     (DEG/KT/KT) (MB)    (FT/S)
S GREEN BAY BUOY 1700   69 70  210/  2/  4 1012.8
N MID LAKE BUOY  1650   68 67  190/  8/ 10 1013.0F   1/ 3
NORTHPORT PIER   1640   70     330/  2/  4 1012.9R
KEWAUNEE LAKESHO 1642   70     160/  3/  4 1012.3S
SHEBOYGAN LAKESH 1700   71     170/ 16/ 17 1012.5F
PORT WASHINGTON  1640   74     190/  5/  8 1014.2S
ATWATER BUOY     1609   66 63  160/  4/  4 1013.7
MILWAUKEE LAKESH 1650   67     140/  9/ 10   N/A
S MID LAKE BUOY  1650   72 71  160/  8/ 10 1014.1S   1
KENOSHA   LAKESH 1700   73     170/  9/ 11 1013.5
$$

TC  - TEMPERATURE IN CELSIUS
VSB - VISIBILITY IN STATUTE MILES
WCI - WIND CHILL INDEX
HX  - HEAT INDEX




USA.gov is the U.S. government's official web portal to all federal, state and local government web resources and services.